Погода в Улу

Россия / Республика Саха (Якутия)     60°18′51″N   127°25′48″E
темп.,
°C
ветер,
м/с
пор.,
м/с
влажн.,
%
обл.,
%
осадки,
мм/ч
давл.,
гПа
погр.,
м
3 марта, ср
ср300:00−34вюв119867 0.0 102319
03:00−35вюв1110060 0.0 102219
06:00−36вюв1110014 0.0 102219
09:00−32вюв01987 0.0 102127
12:00−25в118944 0.0 1019297
15:00−23св118667 0.0 1018595
18:00−28ссв1297100 0.0 101919
21:00−32ссз12100100 0.1 102019
4 марта, чт
чт400:00−35зсз1210073 0.0 102219
03:00−36з239848 0.0 102228
06:00−35з3109444 0.0 1023261
09:00−32зсз5119372 0.1 1023515
12:00−30зсз51091100 0.1 1023702
15:00−30зсз51090100 0.2 1023884
18:00−30зсз51192100 0.1 1025989
21:00−31сз51091100 0.2 1027980
5 марта, пт
пт500:00−31зсз51091100 0.1 1028930
03:00−33зсз41193100 0.1 1030751
06:00−33зсз51292100 0.0 1031716
09:00−32зсз51192100 0.1 1032641
12:00−29зсз5991100 0.0 1032655
15:00−27зсз51091100 0.1 1031711
18:00−28зсз31192100 0.0 1031509
21:00−29зсз4129397 0.0 1033445
6 марта, сб
сб600:00−30зсз3109421 0.0 1032289
03:00−32з389511 0.0 1033179
06:00−32з38950 0.0 1032132
09:00−29з25930 0.0 1031181
12:00−23з35880 0.0 1028393
15:00−20з24840 0.0 1025540
18:00−24зюз12910 0.0 102520
21:00−28юз11940 0.0 102619
7 марта, вс
вс700:00−29юз11910 0.0 102419
03:00−30ююз12890 0.0 102419
06:00−30ююз12920 0.0 102419
09:00−25ююз11940 0.0 102361
12:00−17ююз23860 0.0 1020337
15:00−14ююз228428 0.0 1019525
18:00−18ю2296100 0.0 101820
21:00−21ю2210097 0.1 101820